Hourly Weather Russkiy Kugunur

Today, 18 April, Sunday

Time Temperature Precipitation Wind Pressure Humidity
00:00 +2°C° 0 mm 2 mps 753 mmHg 82%
01:00 +2°C° 0 mm 2 mps 753 mmHg 83%
02:00 +2°C° 0 mm 2 mps 752 mmHg 83%
03:00 +1°C° 0 mm 2 mps 752 mmHg 83%
04:00 +2°C° 0 mm 2 mps 752 mmHg 82%
05:00 +2°C° 0 mm 2 mps 752 mmHg 81%
06:00 +3°C° 0 mm 2 mps 752 mmHg 80%
07:00 +4°C° 0 mm 2 mps 752 mmHg 74%
08:00 +5°C° 0 mm 3 mps 752 mmHg 68%
09:00 +7°C° 0 mm 4 mps 752 mmHg 62%
10:00 +7°C° 0 mm 4 mps 752 mmHg 62%
11:00 +8°C° 0 mm 5 mps 753 mmHg 61%
12:00 +9°C° 0 mm 6 mps 753 mmHg 60%
13:00 +8°C° 0 mm 6 mps 753 mmHg 62%
14:00 +7°C° 0 mm 6 mps 754 mmHg 64%
15:00 +5°C° 0 mm 6 mps 754 mmHg 66%
16:00 +4°C° 0 mm 6 mps 754 mmHg 63%
17:00 +4°C° 0 mm 6 mps 754 mmHg 60%
18:00 +3°C° 0 mm 5 mps 755 mmHg 57%
19:00 +2°C° 0 mm 5 mps 755 mmHg 59%
20:00 +1°C° 0 mm 5 mps 755 mmHg 62%
21:00 0°C° 0 mm 5 mps 756 mmHg 64%
22:00 -1°C° 0 mm 5 mps 756 mmHg 66%
23:00 -1°C° 0 mm 5 mps 756 mmHg 68%

Tomorrow, 19 April, Monday

Time Temperature Precipitation Wind Pressure Humidity
00:00 -2°C° 0 mm 5 mps 756 mmHg 70%
01:00 -2°C° 0 mm 5 mps 756 mmHg 70%
02:00 -2°C° 0 mm 5 mps 757 mmHg 70%
03:00 -2°C° 0 mm 5 mps 757 mmHg 70%
04:00 -3°C° 0 mm 6 mps 757 mmHg 67%
05:00 -3°C° 0 mm 6 mps 757 mmHg 64%
06:00 -3°C° 0 mm 6 mps 758 mmHg 61%
07:00 -2°C° 0 mm 6 mps 758 mmHg 52%
08:00 -1°C° 0 mm 7 mps 758 mmHg 43%
09:00 0°C° 0 mm 7 mps 758 mmHg 35%
10:00 +2°C° 0 mm 7 mps 758 mmHg 33%
11:00 +3°C° 0 mm 7 mps 758 mmHg 32%
12:00 +4°C° 0 mm 7 mps 758 mmHg 30%
13:00 +4°C° 0 mm 7 mps 758 mmHg 30%
14:00 +4°C° 0 mm 7 mps 758 mmHg 30%
15:00 +4°C° 0 mm 7 mps 758 mmHg 30%
16:00 +4°C° 0 mm 6 mps 758 mmHg 33%
17:00 +3°C° 0 mm 6 mps 758 mmHg 37%
18:00 +2°C° 0 mm 5 mps 758 mmHg 40%
19:00 +1°C° 0 mm 5 mps 758 mmHg 45%
20:00 0°C° 0 mm 4 mps 758 mmHg 50%
21:00 -1°C° 0 mm 4 mps 759 mmHg 55%
22:00 -2°C° 0 mm 4 mps 759 mmHg 56%
23:00 -2°C° 0 mm 4 mps 759 mmHg 57%

Day after tomorrow, 20 April, Tuesday

Time Temperature Precipitation Wind Pressure Humidity
00:00 -3°C° 0 mm 4 mps 759 mmHg 58%
01:00 -3°C° 0 mm 4 mps 759 mmHg 57%
02:00 -3°C° 0 mm 4 mps 759 mmHg 57%
03:00 -2°C° 0 mm 3 mps 759 mmHg 57%
04:00 -3°C° 0 mm 4 mps 759 mmHg 55%
05:00 -2°C° 0 mm 4 mps 759 mmHg 53%
06:00 -2°C° 0 mm 4 mps 760 mmHg 51%
07:00 0°C° 0 mm 4 mps 760 mmHg 46%
08:00 +3°C° 0 mm 4 mps 760 mmHg 41%
09:00 +3°C° 0 mm 5 mps 760 mmHg 36%
10:00 +5°C° 0 mm 5 mps 759 mmHg 34%
11:00 +6°C° 0 mm 5 mps 759 mmHg 32%
12:00 +7°C° 0 mm 5 mps 759 mmHg 30%
13:00 +7°C° 0 mm 5 mps 759 mmHg 30%
14:00 +8°C° 0 mm 5 mps 758 mmHg 30%
15:00 +8°C° 0 mm 5 mps 758 mmHg 30%
16:00 +7°C° 0 mm 4 mps 758 mmHg 34%
17:00 +6°C° 0 mm 4 mps 758 mmHg 39%
18:00 +5°C° 0 mm 3 mps 757 mmHg 43%
19:00 +4°C° 0 mm 3 mps 757 mmHg 47%
20:00 +3°C° 0 mm 4 mps 757 mmHg 50%
21:00 +1°C° 0 mm 4 mps 757 mmHg 54%
22:00 0°C° 0 mm 4 mps 757 mmHg 55%
23:00 0°C° 0 mm 4 mps 757 mmHg 56%

21 April, Wednesday

Time Temperature Precipitation Wind Pressure Humidity
00:00 -1°C° 0 mm 4 mps 757 mmHg 57%
01:00 -1°C° 0 mm 4 mps 756 mmHg 58%
02:00 -1°C° 0 mm 4 mps 756 mmHg 59%
03:00 -2°C° 0 mm 4 mps 756 mmHg 60%
04:00 -1°C° 0 mm 5 mps 756 mmHg 57%
05:00 0°C° 0 mm 5 mps 756 mmHg 55%
06:00 0°C° 0 mm 5 mps 756 mmHg 53%
07:00 +2°C° 0 mm 6 mps 755 mmHg 48%
08:00 +3°C° 0 mm 7 mps 755 mmHg 43%
09:00 +5°C° 0 mm 8 mps 755 mmHg 38%
10:00 +6°C° 0 mm 8 mps 754 mmHg 36%
11:00 +6°C° 0 mm 8 mps 754 mmHg 34%
12:00 +7°C° 0 mm 8 mps 754 mmHg 33%
13:00 +7°C° 0 mm 8 mps 753 mmHg 34%
14:00 +7°C° 0 mm 8 mps 753 mmHg 36%
15:00 +8°C° 0 mm 7 mps 753 mmHg 37%
16:00 +6°C° 0 mm 7 mps 753 mmHg 42%
17:00 +5°C° 0 mm 7 mps 753 mmHg 46%
18:00 +5°C° 0 mm 6 mps 752 mmHg 51%
19:00 +4°C° 0 mm 7 mps 752 mmHg 56%
20:00 +3°C° 0 mm 7 mps 752 mmHg 60%
21:00 +3°C° 0 mm 7 mps 752 mmHg 65%
22:00 +2°C° 0.3 mm 7 mps 752 mmHg 75%
23:00 +2°C° 0.3 mm 7 mps 752 mmHg 85%

22 April, Thursday

Time Temperature Precipitation Wind Pressure Humidity
00:00 0°C° 0.3 mm 7 mps 752 mmHg 95%
01:00 0°C° 0.1 mm 7 mps 752 mmHg 95%
02:00 +1°C° 0.1 mm 6 mps 752 mmHg 96%
03:00 +1°C° 0.1 mm 6 mps 752 mmHg 96%
04:00 +1°C° 0.1 mm 6 mps 752 mmHg 96%
05:00 +1°C° 0.1 mm 6 mps 752 mmHg 95%
06:00 +1°C° 0.1 mm 5 mps 753 mmHg 95%
07:00 +2°C° 0 mm 5 mps 753 mmHg 94%
08:00 +2°C° 0 mm 5 mps 753 mmHg 93%
09:00 +2°C° 0 mm 5 mps 753 mmHg 92%
10:00 +5°C° 0 mm 5 mps 754 mmHg 87%
11:00 +6°C° 0 mm 5 mps 754 mmHg 82%
12:00 +7°C° 0 mm 5 mps 754 mmHg 78%
13:00 +7°C° 0 mm 5 mps 754 mmHg 78%
14:00 +7°C° 0 mm 5 mps 754 mmHg 78%
15:00 +7°C° 0 mm 5 mps 754 mmHg 79%
16:00 +7°C° 0 mm 5 mps 754 mmHg 81%
17:00 +6°C° 0 mm 5 mps 755 mmHg 82%
18:00 +6°C° 0 mm 5 mps 755 mmHg 84%
19:00 +5°C° 0 mm 5 mps 755 mmHg 86%
20:00 +5°C° 0 mm 5 mps 755 mmHg 88%
21:00 +3°C° 0 mm 5 mps 755 mmHg 90%
22:00 +4°C° 0 mm 4 mps 755 mmHg 91%
23:00 +4°C° 0 mm 4 mps 755 mmHg 91%

23 April, Friday

Time Temperature Precipitation Wind Pressure Humidity
00:00 +4°C° 0 mm 4 mps 755 mmHg 92%
01:00 +4°C° 0 mm 4 mps 755 mmHg 92%
02:00 +4°C° 0 mm 4 mps 755 mmHg 93%
03:00 +4°C° 0 mm 4 mps 755 mmHg 94%
04:00 +4°C° 0 mm 3 mps 755 mmHg 93%
05:00 +4°C° 0 mm 3 mps 756 mmHg 93%
06:00 +4°C° 0 mm 3 mps 756 mmHg 92%
07:00 +4°C° 0 mm 3 mps 756 mmHg 90%
08:00 +4°C° 0 mm 3 mps 756 mmHg 88%
09:00 +4°C° 0 mm 3 mps 756 mmHg 87%
10:00 +5°C° 0 mm 3 mps 756 mmHg 83%
11:00 +7°C° 0 mm 2 mps 756 mmHg 80%
12:00 +7°C° 0 mm 2 mps 756 mmHg 76%
13:00 +8°C° 0 mm 2 mps 756 mmHg 75%
14:00 +8°C° 0 mm 3 mps 756 mmHg 73%
15:00 +9°C° 0 mm 3 mps 756 mmHg 71%
16:00 +8°C° 0 mm 3 mps 755 mmHg 75%
17:00 +8°C° 0 mm 3 mps 755 mmHg 78%
18:00 +7°C° 0 mm 3 mps 755 mmHg 82%
19:00 +5°C° 0 mm 3 mps 755 mmHg 85%
20:00 +6°C° 0 mm 2 mps 755 mmHg 88%
21:00 +5°C° 0 mm 2 mps 755 mmHg 91%
22:00 +5°C° 0 mm 2 mps 755 mmHg 92%
23:00 +5°C° 0 mm 2 mps 754 mmHg 93%
Show more